Theta_e
338 337 336 336 335 334 333 333 331 329 331 331 327 325 329 328 326 328 329 330 330 329 328 329 328 330 338 333 332 335 335 334 335 334 334 333 332 332 332 333 332 332 332
339 334 335 335 336 334 333 333 332 330 331 331 328 326 327 329 328 326 327 328 329 328 326 325 325 332 333 331 334 333 333 334 334 334 334 333 332 332 332 332 332 332 332
341 340 336 336 337 337 333 332 331 331 333 333 331 328 327 329 328 329 327 327 328 328 327 325 326 328 329 334 333 333 334 334 334 334 333 331 332 332 334 332 332 332 332
343 343 340 337 338 338 334 331 331 332 334 335 333 330 328 328 329 330 329 328 328 329 330 330 330 332 334 333 333 333 334 334 334 334 333 334 332 333 335 333 332 331 331
346 346 343 340 339 339 337 331 331 332 335 336 335 332 328 329 329 330 330 328 328 329 329 330 331 332 333 334 334 333 333 332 334 335 336 335 333 334 335 333 333 332 331
345 346 345 346 345 342 339 332 331 332 335 337 337 334 331 329 330 329 330 328 327 328 328 329 330 332 333 334 332 330 330 331 333 333 333 332 331 333 335 333 332 332 331
329 331 329 336 344 341 340 334 333 334 336 337 337 336 334 330 330 329 328 328 326 326 327 328 329 331 333 332 329 328 329 331 332 333 332 332 334 332 333 333 332 332 332
346 345 341 342 345 345 342 338 334 335 337 338 337 337 335 332 330 330 328 327 326 325 326 327 328 330 332 330 327 326 329 331 333 334 333 333 333 332 332 332 332 331 331
335 340 345 345 345 344 343 342 336 334 335 336 336 336 335 334 332 331 330 328 326 325 326 326 327 328 330 327 325 327 329 332 331 333 332 333 332 332 332 332 331 331 331
314 324 338 341 342 341 343 343 339 335 334 334 336 337 337 335 334 333 332 330 327 326 326 327 327 327 328 326 325 327 329 333 334 333 333 331 331 332 332 332 332 331 331
311 312 316 320 327 334 339 342 339 337 335 335 334 334 335 334 334 333 332 330 328 327 327 327 327 327 327 325 325 325 328 331 330 332 333 329 329 330 331 332 332 330 330
310 310 311 311 311 320 335 340 340 337 335 334 334 332 332 332 332 332 332 331 329 328 328 328 328 328 327 326 325 324 325 326 328 329 332 328 328 329 330 331 331 328 329
310 310 310 310 310 311 312 331 335 339 336 335 334 332 331 331 332 332 333 333 331 329 328 329 329 329 327 326 325 324 325 326 328 329 331 328 329 329 328 329 331 328 328
309 309 309 309 309 310 310 311 317 327 334 338 336 334 333 332 332 333 333 333 332 330 328 328 329 330 328 326 325 324 325 326 330 331 332 332 329 329 327 328 330 328 328
309 309 309 309 309 309 309 309 310 311 314 327 336 339 337 333 333 332 333 333 332 331 329 328 329 330 329 327 326 324 325 327 332 332 331 332 330 329 329 327 327 328 328
309 309 309 309 309 309 309 309 309 309 310 312 325 334 338 338 334 333 332 333 332 331 330 329 329 329 330 329 327 325 325 332 333 332 331 332 331 330 328 328 327 327 327
307 307 308 308 308 309 309 309 309 309 309 309 311 325 330 337 338 336 334 333 332 332 331 330 330 330 331 330 328 328 331 331 332 332 331 330 330 330 328 328 328 327 327
304 305 306 306 306 307 307 308 308 308 308 308 309 310 321 332 338 338 338 335 333 333 331 331 331 331 331 331 330 328 331 333 333 331 331 331 330 329 328 327 327 327 327
303 304 305 305 305 306 305 306 307 307 307 307 307 308 310 315 330 335 337 338 336 333 332 332 332 334 333 332 332 330 331 332 331 332 331 329 330 329 329 327 327 326 326
302 302 303 304 304 305 305 304 304 305 305 305 305 306 308 310 311 322 332 336 337 335 333 332 334 335 335 333 333 331 331 330 332 331 330 329 329 328 329 329 327 326 326
302 302 302 301 301 301 302 303 303 303 304 305 305 305 306 308 309 309 318 332 336 337 335 333 334 336 336 335 334 334 332 331 331 331 330 330 329 328 329 330 328 328 327
301 301 301 300 299 298 298 298 299 300 303 304 305 306 306 306 307 308 310 318 331 335 333 334 332 335 336 335 334 334 334 334 332 333 331 331 330 329 329 329 330 329 329
299 298 297 296 296 296 296 297 298 299 299 301 304 305 306 306 306 307 308 310 327 327 331 334 333 333 336 336 334 334 333 333 333 332 332 331 331 331 330 329 330 329 328
299 297 296 295 295 295 295 296 296 296 297 300 302 303 305 307 307 307 307 307 311 329 332 332 335 331 333 335 335 335 333 331 330 330 330 331 330 331 330 329 329 329 328
295 294 294 294 294 294 293 294 294 296 297 299 301 303 305 307 308 308 307 306 308 320 329 326 326 333 331 333 334 335 336 333 331 328 325 325 327 329 330 329 328 328 328
294 293 292 293 293 294 294 293 295 296 296 298 300 303 306 309 311 313 309 307 313 320 324 325 328 330 332 334 335 335 335 334 332 330 328 325 324 324 326 328 327 327 328
Wind_Speed
6 15 14 12 11 10 11 11 10 11 12 11 9 8 7 9 11 10 10 10 11 11 11 11 10 8 7 3 2 2 3 2 3 5 7 8 9 9 10 12 11 12 13
4 5 9 10 10 9 10 11 11 11 12 11 9 8 8 8 9 10 10 9 10 10 10 11 10 8 5 3 3 4 3 3 4 6 7 9 5 5 6 7 12 13 15
5 2 7 8 9 9 10 11 11 11 12 12 10 8 8 8 7 8 8 8 9 10 10 10 9 7 5 4 5 5 4 4 5 7 9 6 4 6 8 11 12 14 14
5 2 6 7 8 8 9 11 12 12 13 13 11 9 8 8 8 8 8 8 9 10 10 10 9 7 6 6 6 5 5 6 7 7 7 5 6 8 7 10 12 13 12
7 6 2 4 7 10 11 12 12 12 13 13 12 10 8 9 8 8 8 8 10 10 10 10 9 8 8 7 7 7 7 7 9 9 8 6 9 9 9 11 12 12 11
13 10 6 6 7 12 13 13 13 13 14 15 13 11 10 9 9 9 9 9 9 10 10 9 9 9 9 9 9 8 8 9 10 8 6 10 7 9 10 10 11 10 10
19 18 18 19 13 9 12 12 13 13 14 15 14 13 12 11 11 11 11 10 10 10 10 10 9 9 9 9 9 9 9 10 9 7 7 8 8 9 9 10 11 11 12
12 10 10 10 9 12 10 12 13 13 14 15 15 15 14 13 13 13 12 12 11 11 10 10 10 10 10 9 10 11 10 11 9 9 7 7 7 8 9 9 10 10 10
8 6 3 5 8 11 10 13 14 16 16 17 18 18 17 16 15 15 14 13 12 12 11 11 11 11 10 10 10 12 12 12 9 9 8 7 6 8 9 10 11 9 9
12 8 4 1 5 5 7 12 16 17 19 20 20 19 19 18 17 17 16 15 14 14 13 13 13 12 12 11 11 13 14 13 9 11 7 6 7 9 10 11 10 10 9
11 12 8 5 5 6 8 10 13 17 20 21 22 22 22 21 20 20 19 18 17 17 16 15 14 14 13 14 14 15 16 14 10 10 9 6 6 9 10 11 12 12 11
13 13 13 12 11 10 9 11 13 15 19 23 23 24 25 24 24 24 23 21 21 20 19 17 16 15 16 16 16 17 17 17 13 10 9 6 7 8 9 12 13 12 12
15 15 15 15 14 12 13 11 16 15 20 21 25 26 27 27 27 27 26 25 24 24 23 21 20 19 17 18 18 18 18 18 15 13 12 8 7 8 10 11 13 14 14
16 17 18 19 19 19 18 15 14 20 23 21 26 27 30 32 30 31 31 29 28 27 26 25 23 21 19 19 20 20 20 20 17 15 15 11 10 9 8 10 13 14 16
16 20 21 22 25 26 26 26 24 22 20 25 26 24 31 35 35 34 34 33 32 31 30 29 27 24 22 22 23 23 22 22 20 15 16 13 13 10 9 10 12 14 16
16 19 24 28 29 31 33 33 32 31 29 24 26 31 25 34 38 39 39 38 37 35 34 32 30 28 26 25 25 24 25 24 20 16 18 14 14 13 10 10 11 14 16
22 23 26 29 33 36 38 41 42 39 37 34 29 28 38 28 36 41 44 42 42 39 37 35 33 32 29 28 28 28 27 24 24 20 18 13 15 16 12 11 8 10 15
30 31 32 34 37 37 38 42 44 46 45 40 38 35 29 36 29 37 45 47 46 43 40 39 37 36 34 32 31 31 30 27 24 21 20 19 20 18 16 16 13 12 13
31 33 34 33 34 40 43 37 40 42 44 44 41 41 37 34 36 29 36 46 48 46 45 42 40 38 38 35 32 31 32 29 26 21 24 22 23 22 20 21 17 17 17
32 34 36 36 36 35 37 41 39 37 39 42 42 40 41 41 38 42 32 31 44 48 50 47 43 41 39 37 33 31 31 28 26 27 27 25 24 24 24 22 22 19 20
35 37 39 41 41 38 36 36 37 39 37 37 40 36 39 40 40 37 42 35 41 46 50 52 46 44 41 38 35 31 33 31 32 32 31 29 30 28 29 27 26 23 25
38 40 41 41 40 39 37 35 34 36 33 34 36 37 34 37 38 36 34 41 39 51 41 49 48 48 44 41 40 34 31 35 38 37 36 36 33 32 34 32 31 29 28
37 39 40 39 38 37 36 36 35 35 34 32 33 37 34 33 37 36 37 34 37 39 49 50 48 51 48 45 42 28 20 21 35 41 42 40 38 36 35 36 36 33 30
37 37 36 36 36 36 37 37 36 35 37 33 34 37 38 33 33 34 36 35 39 34 46 44 40 49 49 49 45 49 31 17 17 13 40 45 42 40 36 34 33 33 30
33 34 33 33 33 35 35 33 33 32 33 33 30 36 36 28 25 27 28 35 38 37 28 52 66 57 55 53 50 49 51 39 23 18 16 30 40 44 40 37 35 33 32
30 31 31 32 33 33 33 31 28 28 31 31 30 33 29 25 27 19 21 25 29 32 46 46 54 51 57 54 51 49 52 47 41 32 25 21 23 28 32 36 36 34 32
Wind_Direction
8 173 179 177 178 178 176 179 180 178 175 168 153 141 130 126 137 148 157 158 157 160 163 167 173 173 162 144 112 125 117 91 95 113 126 126 123 125 133 132 127 135 129
31 174 190 184 187 191 190 187 186 185 182 180 170 153 151 143 140 142 149 155 158 159 165 169 174 177 181 167 138 147 139 140 139 137 139 132 119 129 150 141 138 142 139
52 228 215 206 205 205 206 197 193 192 191 190 185 173 163 163 156 150 152 157 161 163 169 174 184 194 195 176 164 175 166 164 158 156 152 154 157 153 151 149 146 149 150
39 96 211 223 229 233 226 215 204 198 198 198 198 192 181 179 174 167 167 166 169 172 176 182 186 187 185 175 176 197 172 163 165 167 172 186 168 160 168 163 162 162 159
68 66 341 285 267 246 238 229 217 208 203 203 206 207 202 195 191 186 182 181 178 178 179 182 184 185 180 182 182 196 173 175 168 166 179 179 171 175 174 173 173 173 171
74 71 41 336 314 274 249 232 226 218 211 207 211 216 215 209 205 203 198 198 192 188 185 186 185 186 182 181 183 200 187 185 185 182 185 197 190 186 184 188 184 185 182
54 48 37 28 6 303 261 249 234 225 218 214 215 221 223 221 218 216 212 210 205 198 194 194 192 190 185 187 188 205 198 193 189 188 161 160 191 196 193 192 190 188 184
51 39 24 11 7 347 305 277 259 236 225 221 222 227 228 228 226 224 221 219 215 208 204 204 202 197 193 197 198 206 204 193 200 192 178 166 184 197 197 192 194 196 211
88 109 39 342 335 339 323 287 266 255 236 228 227 229 230 229 229 229 228 227 224 217 212 212 208 206 205 208 203 204 203 198 193 198 187 189 201 201 202 195 200 205 203
63 68 114 257 276 283 308 308 273 256 250 240 236 235 237 235 232 231 231 231 231 225 219 218 215 212 210 213 207 202 205 204 203 200 203 210 208 206 206 199 200 204 201
51 51 44 18 321 275 295 303 284 266 258 251 247 241 237 237 235 232 232 233 234 230 226 223 223 220 217 214 207 204 206 207 205 219 222 217 203 212 209 207 204 203 201
19 15 12 10 354 342 305 281 296 264 257 262 257 253 247 241 237 235 233 232 234 233 230 228 226 223 221 216 209 207 209 212 206 212 211 211 197 214 218 218 214 210 213
356 348 349 339 339 338 332 296 292 297 267 256 259 259 254 249 242 238 234 232 232 232 231 229 227 226 222 217 211 210 211 214 200 201 205 205 214 224 232 226 224 219 216
347 342 333 331 327 322 320 315 309 292 283 266 259 258 258 255 247 242 237 234 233 234 234 232 231 230 225 219 214 213 212 211 208 205 213 216 221 231 236 228 222 224 219
340 330 325 322 317 315 312 308 302 299 301 282 274 261 256 256 255 248 243 238 236 234 234 233 232 230 226 221 217 214 213 211 216 218 217 219 220 227 232 232 226 226 224
334 323 321 319 312 307 305 301 296 294 292 289 282 270 264 258 254 253 248 242 239 237 237 234 232 231 228 224 220 217 214 209 215 225 208 219 219 225 231 237 233 227 226
337 329 322 316 310 304 297 295 294 289 285 284 279 278 265 264 259 252 251 246 243 239 239 236 233 231 227 224 221 217 214 214 218 216 212 216 226 225 230 251 251 240 236
345 338 331 324 319 310 303 298 292 289 283 277 276 271 273 265 251 260 254 250 245 241 239 238 234 231 228 225 223 219 217 218 217 224 228 218 232 240 227 232 244 244 251
344 338 330 325 320 315 312 304 294 290 287 280 273 268 263 269 264 257 254 257 248 243 240 237 234 231 230 225 223 220 218 220 220 228 227 225 231 236 240 233 236 242 249
345 340 335 331 327 321 313 310 306 296 289 284 277 267 261 258 266 268 264 247 249 245 241 236 233 231 230 228 221 216 217 222 223 235 233 227 234 238 237 240 239 236 239
345 342 340 338 336 332 324 314 309 307 303 291 285 274 263 261 260 265 269 260 250 236 240 238 232 233 230 224 220 220 219 220 227 233 235 235 234 231 236 240 240 242 239
347 343 340 339 338 337 334 323 315 312 306 301 297 288 273 267 267 265 264 271 278 226 242 238 232 232 230 223 216 220 221 228 229 232 234 237 239 238 241 242 241 244 247
348 347 344 342 341 339 336 328 320 313 309 305 306 302 291 277 270 266 257 256 261 222 238 237 234 232 230 224 218 211 211 223 232 230 232 235 240 240 243 244 246 246 246
348 346 343 341 341 339 338 334 330 322 315 314 308 304 300 292 279 273 261 256 245 242 233 226 234 236 232 230 220 221 219 222 215 228 234 234 239 241 240 244 244 245 246
351 348 343 340 341 344 342 337 329 319 311 310 304 299 299 293 290 273 261 252 253 243 244 230 244 236 231 229 227 220 222 226 227 228 218 228 233 239 241 242 247 248 247
354 349 348 347 348 347 343 340 332 316 309 309 310 303 306 304 306 282 252 244 246 243 234 241 234 229 233 228 229 226 227 221 224 231 238 237 235 239 240 243 243 245 248